TimeCST,TemperatureF,Dew PointF,Humidity,Sea Level PressureIn,VisibilityMPH,Wind Direction,Wind SpeedMPH,Gust SpeedMPH,PrecipitationIn,Events,Conditions,WindDirDegrees,DateUTC
12:15 AM,30.2,26.6,86,29.95,10.0,WNW,10.4,-,N/A,,Scattered Clouds,300,2013-02-27 06:15:00
12:35 AM,30.2,26.6,86,29.96,10.0,NW,11.5,-,N/A,,Mostly Cloudy,320,2013-02-27 06:35:00
12:55 AM,32.0,28.4,87,29.97,10.0,NNW,18.4,24.2,N/A,Snow,Light Snow,330,2013-02-27 06:55:00
1:15 AM,32.0,30.2,93,29.97,7.0,NNW,18.4,25.3,N/A,Snow,Light Snow,330,2013-02-27 07:15:00
1:35 AM,32.0,28.4,87,29.98,10.0,NNW,18.4,27.6,N/A,,Mostly Cloudy,330,2013-02-27 07:35:00
1:55 AM,32.0,26.6,80,30.00,10.0,NNW,19.6,25.3,N/A,,Scattered Clouds,330,2013-02-27 07:55:00
2:15 AM,30.2,26.6,86,30.01,10.0,NNW,16.1,21.9,N/A,,Clear,330,2013-02-27 08:15:00
2:35 AM,30.2,26.6,86,30.02,10.0,NNW,15.0,23.0,N/A,,Clear,330,2013-02-27 08:35:00
2:55 AM,30.2,26.6,86,30.02,10.0,NW,11.5,-,N/A,,Clear,320,2013-02-27 08:55:00
3:15 AM,28.4,24.8,86,30.02,10.0,NNW,13.8,-,N/A,,Clear,330,2013-02-27 09:15:00
3:35 AM,28.4,23.0,80,30.03,10.0,NW,9.2,-,N/A,,Clear,320,2013-02-27 09:35:00
3:55 AM,26.6,23.0,86,30.04,10.0,NW,10.4,-,N/A,,Clear,310,2013-02-27 09:55:00
4:15 AM,28.4,24.8,86,30.04,10.0,NW,12.7,-,N/A,,Clear,310,2013-02-27 10:15:00
4:35 AM,28.4,26.6,93,30.04,10.0,NW,15.0,-,N/A,,Scattered Clouds,320,2013-02-27 10:35:00
4:55 AM,28.4,24.8,86,30.05,10.0,NW,16.1,-,N/A,,Mostly Cloudy,320,2013-02-27 10:55:00
5:15 AM,28.4,26.6,93,30.05,10.0,NW,17.3,-,N/A,,Mostly Cloudy,320,2013-02-27 11:15:00
5:35 AM,30.2,26.6,86,30.07,10.0,NW,17.3,25.3,N/A,,Overcast,320,2013-02-27 11:35:00
5:55 AM,30.2,26.6,86,30.08,10.0,NW,17.3,-,N/A,,Scattered Clouds,320,2013-02-27 11:55:00
6:15 AM,28.4,26.6,93,30.07,10.0,NNW,20.7,-,N/A,,Clear,330,2013-02-27 12:15:00
6:35 AM,28.4,24.8,86,30.09,10.0,NNW,20.7,-,N/A,,Clear,330,2013-02-27 12:35:00
6:55 AM,28.4,24.8,86,30.11,10.0,NNW,19.6,24.2,N/A,,Clear,330,2013-02-27 12:55:00
7:15 AM,28.4,24.8,86,30.12,10.0,NNW,19.6,-,N/A,,Clear,330,2013-02-27 13:15:00
7:35 AM,28.4,24.8,86,30.13,10.0,NNW,16.1,-,N/A,,Clear,330,2013-02-27 13:35:00
7:55 AM,28.4,23.0,80,30.15,10.0,NW,15.0,-,N/A,,Clear,320,2013-02-27 13:55:00
8:15 AM,28.4,24.8,86,30.16,10.0,NNW,18.4,-,N/A,,Clear,330,2013-02-27 14:15:00
8:35 AM,30.2,24.8,80,30.17,10.0,NNW,18.4,-,N/A,,Clear,330,2013-02-27 14:35:00
8:55 AM,30.2,26.6,86,30.19,10.0,NNW,13.8,-,N/A,,Clear,330,2013-02-27 14:55:00
9:15 AM,32.0,26.6,80,30.20,10.0,NW,15.0,-,N/A,,Clear,320,2013-02-27 15:15:00
9:35 AM,32.0,26.6,80,30.20,10.0,NNW,20.7,25.3,N/A,,Clear,330,2013-02-27 15:35:00
9:55 AM,32.0,26.6,80,30.21,10.0,NNW,18.4,27.6,N/A,,Scattered Clouds,340,2013-02-27 15:55:00
10:15 AM,33.8,26.6,75,30.22,10.0,NNW,23.0,27.6,N/A,,Scattered Clouds,340,2013-02-27 16:15:00
10:35 AM,33.8,28.4,81,30.22,10.0,NNW,23.0,-,N/A,,Scattered Clouds,340,2013-02-27 16:35:00
10:55 AM,33.8,26.6,75,30.23,10.0,NNW,23.0,28.8,N/A,,Mostly Cloudy,340,2013-02-27 16:55:00
11:15 AM,35.6,26.6,70,30.24,10.0,NNW,19.6,25.3,N/A,,Mostly Cloudy,340,2013-02-27 17:15:00
11:35 AM,35.6,26.6,70,30.24,10.0,North,20.7,26.5,N/A,,Scattered Clouds,350,2013-02-27 17:35:00
11:55 AM,35.6,26.6,70,30.24,10.0,North,20.7,25.3,N/A,,Mostly Cloudy,350,2013-02-27 17:55:00
12:15 PM,35.6,24.8,65,30.24,10.0,North,17.3,25.3,N/A,,Mostly Cloudy,350,2013-02-27 18:15:00
12:35 PM,37.4,26.6,65,30.22,10.0,NNW,19.6,26.5,N/A,,Mostly Cloudy,340,2013-02-27 18:35:00
12:55 PM,37.4,26.6,65,30.22,10.0,North,21.9,27.6,N/A,,Mostly Cloudy,350,2013-02-27 18:55:00
1:15 PM,37.4,23.0,56,30.21,10.0,North,25.3,29.9,N/A,,Scattered Clouds,350,2013-02-27 19:15:00
1:35 PM,37.4,23.0,56,30.21,10.0,North,20.7,-,N/A,,Scattered Clouds,350,2013-02-27 19:35:00
1:55 PM,37.4,23.0,56,30.20,10.0,North,21.9,27.6,N/A,,Scattered Clouds,350,2013-02-27 19:55:00
2:15 PM,39.2,24.8,56,30.20,10.0,North,19.6,32.2,N/A,,Scattered Clouds,360,2013-02-27 20:15:00
2:35 PM,37.4,24.8,60,30.20,10.0,North,21.9,27.6,N/A,,Scattered Clouds,350,2013-02-27 20:35:00
2:55 PM,37.4,23.0,56,30.20,10.0,North,18.4,-,N/A,,Mostly Cloudy,350,2013-02-27 20:55:00
3:15 PM,37.4,23.0,56,30.20,10.0,NNW,18.4,-,N/A,,Scattered Clouds,340,2013-02-27 21:15:00
3:35 PM,41.0,21.2,45,30.20,10.0,NNW,19.6,26.5,N/A,,Scattered Clouds,340,2013-02-27 21:35:00
4:15 PM,41.0,23.0,49,30.19,10.0,North,13.8,-,N/A,,Mostly Cloudy,10,2013-02-27 22:15:00
4:35 PM,41.0,21.2,45,30.19,10.0,North,15.0,20.7,N/A,,Scattered Clouds,360,2013-02-27 22:35:00
4:55 PM,41.0,21.2,45,30.20,10.0,North,13.8,-,N/A,,Clear,10,2013-02-27 22:55:00
5:15 PM,41.0,21.2,45,30.20,10.0,North,18.4,21.9,N/A,,Scattered Clouds,360,2013-02-27 23:15:00
5:35 PM,39.2,21.2,49,30.20,10.0,North,12.7,-,N/A,,Clear,360,2013-02-27 23:35:00
5:55 PM,39.2,23.0,52,30.20,10.0,NNE,6.9,-,N/A,,Clear,30,2013-02-27 23:55:00
6:15 PM,37.4,24.8,60,30.20,10.0,North,4.6,-,N/A,,Clear,10,2013-02-28 00:15:00
6:35 PM,33.8,24.8,70,30.21,10.0,North,4.6,-,N/A,,Clear,10,2013-02-28 00:35:00
6:55 PM,32.0,23.0,69,30.20,10.0,North,5.8,-,N/A,,Clear,360,2013-02-28 00:55:00
7:15 PM,32.0,23.0,69,30.21,10.0,North,6.9,-,N/A,,Clear,350,2013-02-28 01:15:00
7:35 PM,33.8,23.0,65,30.21,10.0,NW,4.6,-,N/A,,Clear,320,2013-02-28 01:35:00
7:55 PM,32.0,23.0,69,30.22,10.0,NW,4.6,-,N/A,,Clear,320,2013-02-28 01:55:00
8:15 PM,32.0,23.0,69,30.22,10.0,NW,4.6,-,N/A,,Clear,310,2013-02-28 02:15:00
8:35 PM,32.0,23.0,69,30.22,10.0,WNW,4.6,-,N/A,,Clear,290,2013-02-28 02:35:00
8:55 PM,30.2,23.0,75,30.23,10.0,WNW,5.8,-,N/A,,Clear,290,2013-02-28 02:55:00
9:15 PM,30.2,21.2,69,30.24,10.0,WNW,6.9,-,N/A,,Clear,300,2013-02-28 03:15:00
9:35 PM,30.2,21.2,69,30.24,10.0,WNW,6.9,-,N/A,,Clear,300,2013-02-28 03:35:00
10:15 PM,28.4,19.4,69,30.24,10.0,NW,5.8,-,N/A,,Clear,320,2013-02-28 04:15:00
10:35 PM,28.4,19.4,69,30.25,10.0,NNW,5.8,-,N/A,,Clear,340,2013-02-28 04:35:00
10:55 PM,28.4,19.4,69,30.25,10.0,NW,5.8,-,N/A,,Clear,310,2013-02-28 04:55:00
11:15 PM,28.4,19.4,69,30.24,10.0,NW,5.8,-,N/A,,Clear,310,2013-02-28 05:15:00
11:35 PM,28.4,19.4,69,30.25,10.0,NW,5.8,-,N/A,,Clear,310,2013-02-28 05:35:00
11:55 PM,26.6,19.4,74,30.25,10.0,WNW,5.8,-,N/A,,Clear,300,2013-02-28 05:55:00